Kalamazoo, MI

12:47 AM EDT on September 23, 2017 (GMT -0400)
Kalamazoo-Battle Creek International

Weather History for KAZO - May, 2012

Change the Weather History Date:

Monday, May 14, 2012

  Actual Average Record
Temperature  
Mean Temperature 61 °F 58 °F  
Max Temperature 77 °F 69 °F 90 °F (1982)
Min Temperature 44 °F 47 °F 34 °F (1973)
Degree Days  
Heating Degree Days 4 8  
Month to date heating degree days 129  
Since 1 July heating degree days 6272  
Cooling Degree Days 0 1  
Month to date cooling degree days 8  
Year to date cooling degree days 12  
Growing Degree Days 10 (Base 50)    
Moisture  
Dew Point 42 °F    
Average Humidity 54    
Maximum Humidity 93    
Minimum Humidity 26    
Precipitation  
Precipitation 0.00 in 0.13 in 1.16 in (2001)
Month to date precipitation 0.41 1.75  
Year to date precipitation 10.32  
Sea Level Pressure  
Sea Level Pressure 30.07 in    
Wind  
Wind Speed 3 mph (NNW)    
Max Wind Speed 14 mph    
Max Gust Speed 29 mph    
Visibility 10 miles    
Events      
T = Trace of Precipitation, MM = Missing Value Source: NWS Daily Summary

Daily Weather History Graph

Daily Weather History Graph

Search for Another Location

Airport or City:

Trip Planner

Search our weather history database for the weather conditions in past years. The results will help you decide how hot, cold, wet, or windy it might be!

Date:

Astronomy

May. 14, 2012 Rise Set
Actual Time 6:21 AM EDT 8:56 PM EDT
Civil Twilight 5:49 AM EDT 9:28 PM EDT
Nautical Twilight 5:09 AM EDT 10:08 PM EDT
Astronomical Twilight 4:24 AM EDT 10:53 PM EDT
Moon 3:02 AM EDT (5/14) 3:10 PM EDT (5/14)
Length of Visible Light 15h 38m
Length of Day
14h 34m
Waning Crescent, 33% of the Moon is Illuminated
May 14
Waning Crescent
May 20
New
May 28
First Quarter
Jun 4
Full
Jun 11
Last Quarter

Hourly Weather History & Observations

Time (EDT) Temp. Dew Point Humidity Pressure Visibility Wind Dir Wind Speed Gust Speed Precip Events Conditions
12:53 AM 54.0 °F 44.1 °F 69% 30.13 in 10.0 mi NNW 3.5 mph - N/A   Clear
1:53 AM 51.1 °F 43.0 °F 74% 30.12 in 10.0 mi NNW 3.5 mph - N/A   Clear
2:53 AM 48.9 °F 44.1 °F 83% 30.11 in 10.0 mi Calm Calm - N/A   Clear
3:53 AM 46.9 °F 43.0 °F 86% 30.11 in 10.0 mi Calm Calm - N/A   Clear
4:53 AM 46.0 °F 43.0 °F 89% 30.11 in 10.0 mi Calm Calm - N/A   Clear
5:53 AM 46.0 °F 43.0 °F 89% 30.10 in 10.0 mi Calm Calm - N/A   Clear
6:53 AM 45.0 °F 43.0 °F 93% 30.11 in 10.0 mi Calm Calm - N/A   Clear
7:53 AM 52.0 °F 46.9 °F 83% 30.11 in 10.0 mi Calm Calm - N/A   Clear
8:53 AM 60.1 °F 48.9 °F 67% 30.11 in 10.0 mi Calm Calm - N/A   Clear
9:53 AM 64.9 °F 50.0 °F 58% 30.12 in 10.0 mi Calm Calm - N/A   Clear
10:53 AM 68.0 °F 43.0 °F 40% 30.11 in 10.0 mi Calm Calm - N/A   Clear
11:53 AM 71.1 °F 39.0 °F 31% 30.10 in 10.0 mi ENE 3.5 mph - N/A   Clear
12:53 PM 73.0 °F 42.1 °F 33% 30.09 in 10.0 mi Calm Calm - N/A   Clear
1:53 PM 73.9 °F 37.9 °F 27% 30.07 in 10.0 mi North 3.5 mph - N/A   Clear
2:53 PM 73.9 °F 37.0 °F 26% 30.05 in 10.0 mi NNW 6.9 mph - N/A   Clear
3:53 PM 75.0 °F 39.0 °F 27% 30.04 in 10.0 mi North 12.7 mph 17.3 mph N/A   Clear
4:53 PM 75.0 °F 37.9 °F 26% 30.02 in 10.0 mi NNW 8.1 mph - N/A   Clear
5:53 PM 75.0 °F 39.9 °F 28% 30.02 in 10.0 mi NNW 6.9 mph - N/A   Clear
6:53 PM 73.0 °F 37.0 °F 27% 30.03 in 10.0 mi NW 6.9 mph - N/A   Clear
7:53 PM 70.0 °F 36.0 °F 29% 30.02 in 10.0 mi WNW 8.1 mph - N/A   Clear
8:53 PM 64.9 °F 36.0 °F 34% 30.02 in 10.0 mi West 3.5 mph - N/A   Clear
9:53 PM 57.0 °F 42.1 °F 57% 30.02 in 10.0 mi Calm Calm - N/A   Clear
10:53 PM 55.9 °F 39.9 °F 55% 30.03 in 10.0 mi Calm Calm - N/A   Clear
11:53 PM 52.0 °F 42.1 °F 69% 30.02 in 10.0 mi Calm Calm - N/A   Clear